Weather History for Bismarck, ND

Change the Weather History Date:

Friday, November 23, 2012

  Actual Average Record
Temperature  
Mean Temperature 19 °F 25 °F  
Max Temperature 24 °F 35 °F 62 °F (2011)
Min Temperature 13 °F 15 °F -21 °F (1985)
Degree Days  
Heating Degree Days 46 40  
Month to date heating degree days 787 780  
Since 1 July heating degree days 1702 1692  
Cooling Degree Days 0 0  
Month to date cooling degree days 0 0  
Year to date cooling degree days 599 520  
Moisture  
Dew Point 10 °F    
Average Humidity 72    
Maximum Humidity 84    
Minimum Humidity 59    
Precipitation  
Precipitation T in 0.02 in 0.51 in (1996)
Month to date precipitation 1.07 0.59  
Year to date precipitation 14.27 17.24  
Snow  
Snow T in 0.30 in 8.90 in (1996)
Month to date snowfall 10.5 6.7  
Since 1 July snowfall 10.5 9.1  
Since 1 September snowfall 10.5 9.1  
Snow Depth 1.00 in    
Sea Level Pressure  
Sea Level Pressure 30.51 in    
Wind  
Wind Speed 8 mph (NNW)    
Max Wind Speed 24 mph    
Max Gust Speed 32 mph    
Visibility 9 miles    
Events Snow    
T = Trace of Precipitation, MM = Missing Value Source: NWS Daily Summary

Daily Weather History Graph

Daily Weather History Graph

Search for Another Location

Airport:

Trip Planner

Search our weather history database for the weather conditions in past years. The results will help you decide how hot, cold, wet, or windy it might be!

Date:

Astronomy

Nov. 23, 2012 Rise Set
Actual Time 7:57 AM CST 5:01 PM CST
Civil Twilight 7:23 AM CST 5:34 PM CST
Nautical Twilight 6:46 AM CST 6:12 PM CST
Astronomical Twilight 6:10 AM CST 6:48 PM CST
Moon 2:29 PM CST (11/23) 3:03 AM CST (11/23)
Length of Visible Light 10h 11m
Length of Day
9h 03m
Waxing Gibbous, 80% of the Moon is Illuminated
Nov 23
Waxing Gibbous
Nov 28
Full
Dec 6
Last Quarter
Dec 13
New
Dec 19
First Quarter

Hourly Weather History & Observations

Time (CST) Temp. Windchill Dew Point Humidity Pressure Visibility Wind Dir Wind Speed Gust Speed Precip Events Conditions
12:52 AM 16.0 °F 0.1 °F 8.1 °F 71% 30.53 in 10.0 mi NW 17.3 mph 24.2 mph N/A   Clear
1:52 AM 15.1 °F -0.1 °F 8.1 °F 74% 30.56 in 10.0 mi NW 15.0 mph 27.6 mph N/A   Partly Cloudy
2:52 AM 16.0 °F 0.6 °F 8.1 °F 71% 30.57 in 10.0 mi NW 16.1 mph 24.2 mph N/A   Clear
3:52 AM 14.0 °F 2.9 °F 9.0 °F 80% 30.59 in 10.0 mi NW 8.1 mph - N/A   Clear
4:42 AM 15.8 °F 5.1 °F 10.4 °F 79% 30.49 in 10.0 mi NW 8.1 mph - N/A   Mostly Cloudy
4:52 AM 15.1 °F 1.8 °F 10.0 °F 80% 30.59 in 10.0 mi NNW 11.5 mph - N/A   Overcast
5:13 AM 15.8 °F 4.2 °F 10.4 °F 79% 30.50 in 10.0 mi NW 9.2 mph - N/A   Scattered Clouds
5:52 AM 15.1 °F 1.1 °F 9.0 °F 77% 30.61 in 10.0 mi NW 12.7 mph 21.9 mph N/A   Clear
6:52 AM 12.9 °F -0.9 °F 8.1 °F 81% 30.60 in 10.0 mi NNW 11.5 mph - N/A   Clear
7:28 AM 12.2 °F 1.7 °F 8.6 °F 85% 30.50 in 10.0 mi NW 6.9 mph - N/A   Mostly Cloudy
7:52 AM 12.9 °F 2.6 °F 8.1 °F 81% 30.61 in 10.0 mi NNW 6.9 mph - N/A   Mostly Cloudy
8:03 AM 12.2 °F -1.0 °F 8.6 °F 85% 30.50 in 10.0 mi NNW 10.4 mph - N/A   Partly Cloudy
8:22 AM 14.0 °F 3.9 °F 8.6 °F 79% 30.51 in 7.0 mi NW 6.9 mph - N/A   Mostly Cloudy
8:52 AM 15.1 °F 2.5 °F 10.0 °F 80% 30.61 in 4.0 mi NW 10.4 mph - 0.00 in Snow Light Snow
9:52 AM 16.0 °F 2.9 °F 10.0 °F 77% 30.61 in 3.0 mi NW 11.5 mph - 0.00 in Snow Light Snow
10:52 AM 16.0 °F 5.3 °F 9.0 °F 74% 30.61 in 7.0 mi NNW 8.1 mph - 0.00 in Snow Light Snow
11:52 AM 19.0 °F 9.0 °F 10.9 °F 71% 30.60 in 10.0 mi NW 8.1 mph - 0.00 in   Overcast
12:17 PM 19.4 °F 11.5 °F 10.4 °F 68% 30.48 in 10.0 mi Variable 5.8 mph - N/A   Scattered Clouds
12:52 PM 19.9 °F 11.1 °F 10.9 °F 68% 30.56 in 10.0 mi NW 6.9 mph - N/A   Clear
1:52 PM 21.9 °F 17.2 °F 10.9 °F 63% 30.53 in 10.0 mi NNW 3.5 mph - N/A   Clear
2:52 PM 23.0 °F 14.7 °F 10.9 °F 60% 30.53 in 10.0 mi West 6.9 mph - N/A   Clear
3:52 PM 23.0 °F - 10.0 °F 58% 30.49 in 10.0 mi Calm Calm - N/A   Clear
4:52 PM 21.0 °F - 12.0 °F 68% 30.50 in 10.0 mi Calm Calm - N/A   Clear
5:52 PM 19.0 °F 10.0 °F 12.0 °F 74% 30.46 in 10.0 mi East 6.9 mph - N/A   Partly Cloudy
6:52 PM 17.1 °F 11.7 °F 12.0 °F 81% 30.45 in 10.0 mi East 3.5 mph - N/A   Clear
7:52 PM 19.9 °F 10.1 °F 12.9 °F 74% 30.40 in 10.0 mi ESE 8.1 mph - N/A   Overcast
8:52 PM 19.9 °F 11.1 °F 12.9 °F 74% 30.40 in 10.0 mi SE 6.9 mph - N/A   Overcast
9:52 PM 21.0 °F 14.6 °F 12.9 °F 71% 30.38 in 10.0 mi SE 4.6 mph - N/A   Overcast
10:52 PM 21.9 °F 12.5 °F 14.0 °F 72% 30.34 in 10.0 mi SE 8.1 mph - N/A   Overcast
11:52 PM 21.9 °F 12.5 °F 14.0 °F 72% 30.30 in 10.0 mi SE 8.1 mph - N/A   Partly Cloudy